Time,TemperatureF,DewpointF,PressureIn,WindDirection,WindDirectionDegrees,WindSpeedMPH,WindSpeedGustMPH,Humidity,HourlyPrecipIn,Conditions,Clouds,dailyrainin,SoftwareType,DateUTC
2013-04-26 00:01:00,59.2,39.6,30.18,ESE,113,3.0,6.0,48,-99.99,,,0.00,meteohub,2013-04-26 05:01:00,
2013-04-26 00:06:00,59.2,39.6,30.18,SE,135,3.0,6.0,48,-99.99,,,0.00,meteohub,2013-04-26 05:06:00,
2013-04-26 00:11:00,59.2,40.1,30.18,SSE,158,2.0,6.0,49,-99.99,,,0.00,meteohub,2013-04-26 05:11:00,
2013-04-26 00:16:00,59.0,39.9,30.18,ESE,113,2.0,3.0,49,-99.99,,,0.00,meteohub,2013-04-26 05:16:00,
2013-04-26 00:21:00,58.8,39.7,30.18,ESE,113,3.0,3.0,49,-99.99,,,0.00,meteohub,2013-04-26 05:21:00,
2013-04-26 00:26:00,58.8,39.7,30.18,SE,135,4.0,4.0,49,-99.99,,,0.00,meteohub,2013-04-26 05:26:00,
2013-04-26 00:31:00,58.8,39.7,30.18,SE,135,2.0,7.0,49,-99.99,,,0.00,meteohub,2013-04-26 05:31:00,
2013-04-26 00:36:00,58.8,39.7,30.18,SSE,158,3.0,7.0,49,-99.99,,,0.00,meteohub,2013-04-26 05:36:00,
2013-04-26 00:41:00,58.8,39.7,30.17,ESE,113,4.0,4.0,49,-99.99,,,0.00,meteohub,2013-04-26 05:41:00,
2013-04-26 00:46:00,58.8,39.7,30.17,ESE,113,6.0,6.0,49,-99.99,,,0.00,meteohub,2013-04-26 05:46:00,
2013-04-26 00:51:00,58.8,39.7,30.17,East,90,3.0,4.0,49,-99.99,,,0.00,meteohub,2013-04-26 05:51:00,
2013-04-26 00:56:00,58.8,39.7,30.17,SE,135,7.0,7.0,49,-99.99,,,0.00,meteohub,2013-04-26 05:56:00,
2013-04-26 01:01:00,59.0,39.9,30.16,SE,135,4.0,7.0,49,-99.99,,,0.00,meteohub,2013-04-26 06:01:00,
2013-04-26 01:06:00,58.8,39.2,30.16,SE,135,2.0,7.0,48,-99.99,,,0.00,meteohub,2013-04-26 06:06:00,
2013-04-26 01:11:00,59.0,39.9,30.16,East,90,3.0,7.0,49,-99.99,,,0.00,meteohub,2013-04-26 06:11:00,
2013-04-26 01:16:00,58.8,39.7,30.16,ESE,113,4.0,6.0,49,-99.99,,,0.00,meteohub,2013-04-26 06:16:00,
2013-04-26 01:22:00,58.8,39.7,30.16,ESE,113,5.0,7.0,49,-99.99,,,0.00,meteohub,2013-04-26 06:22:00,
2013-04-26 01:27:00,58.8,39.7,30.16,South,180,6.0,7.0,49,-99.99,,,0.00,meteohub,2013-04-26 06:27:00,
2013-04-26 01:32:00,58.8,39.7,30.16,SE,135,6.0,9.0,49,-99.99,,,0.00,meteohub,2013-04-26 06:32:00,
2013-04-26 01:37:00,58.8,39.7,30.16,SE,135,5.0,9.0,49,-99.99,,,0.00,meteohub,2013-04-26 06:37:00,
2013-04-26 01:42:00,58.6,40.1,30.13,South,180,4.0,9.0,50,-99.99,,,0.00,meteohub,2013-04-26 06:42:00,
2013-04-26 01:47:00,58.5,39.9,30.13,SW,225,1.0,6.0,50,-99.99,,,0.00,meteohub,2013-04-26 06:47:00,
2013-04-26 01:52:00,58.3,40.3,30.13,SE,135,4.0,7.0,51,-99.99,,,0.00,meteohub,2013-04-26 06:52:00,
2013-04-26 01:57:00,57.9,39.9,30.13,SE,135,6.0,7.0,51,-99.99,,,0.00,meteohub,2013-04-26 06:57:00,
2013-04-26 02:02:00,58.1,40.6,30.14,NNE,23,0.0,6.0,52,-99.99,,,0.00,meteohub,2013-04-26 07:02:00,
2013-04-26 02:07:00,57.7,40.3,30.14,ESE,113,2.0,6.0,52,-99.99,,,0.00,meteohub,2013-04-26 07:07:00,
2013-04-26 02:12:00,57.7,40.3,30.14,SSW,203,3.0,6.0,52,-99.99,,,0.00,meteohub,2013-04-26 07:12:00,
2013-04-26 02:17:00,57.7,40.6,30.14,SE,135,5.0,5.0,53,-99.99,,,0.00,meteohub,2013-04-26 07:17:00,
2013-04-26 02:22:00,57.6,40.6,30.15,SSE,158,2.0,5.0,53,-99.99,,,0.00,meteohub,2013-04-26 07:22:00,
2013-04-26 02:27:00,57.4,40.5,30.15,SE,135,3.0,5.0,53,-99.99,,,0.00,meteohub,2013-04-26 07:27:00,
2013-04-26 02:32:00,57.2,40.3,30.15,South,180,5.0,5.0,53,-99.99,,,0.00,meteohub,2013-04-26 07:32:00,
2013-04-26 02:37:00,57.4,40.5,30.15,SSE,158,2.0,5.0,53,-99.99,,,0.00,meteohub,2013-04-26 07:37:00,
2013-04-26 02:42:00,57.2,40.3,30.17,South,180,4.0,7.0,53,-99.99,,,0.00,meteohub,2013-04-26 07:42:00,
2013-04-26 02:47:00,57.2,40.3,30.17,ESE,113,2.0,7.0,53,-99.99,,,0.00,meteohub,2013-04-26 07:47:00,
2013-04-26 02:52:00,57.2,40.3,30.17,ESE,113,2.0,7.0,53,-99.99,,,0.00,meteohub,2013-04-26 07:52:00,
2013-04-26 02:57:00,57.4,40.5,30.17,South,180,5.0,7.0,53,-99.99,,,0.00,meteohub,2013-04-26 07:57:00,
2013-04-26 03:02:00,57.2,40.3,30.14,ENE,68,2.0,5.0,53,-99.99,,,0.00,meteohub,2013-04-26 08:02:00,
2013-04-26 03:07:00,57.2,40.3,30.14,SSE,158,0.0,5.0,53,-99.99,,,0.00,meteohub,2013-04-26 08:07:00,
2013-04-26 03:12:00,57.2,40.3,30.14,NNW,338,1.0,5.0,53,-99.99,,,0.00,meteohub,2013-04-26 08:12:00,
2013-04-26 03:17:00,57.0,40.1,30.14,SE,135,2.0,4.0,53,-99.99,,,0.00,meteohub,2013-04-26 08:17:00,
2013-04-26 03:22:00,57.0,40.1,30.16,ESE,113,4.0,4.0,53,-99.99,,,0.00,meteohub,2013-04-26 08:22:00,
2013-04-26 03:27:00,57.0,40.1,30.16,SE,135,4.0,4.0,53,-99.99,,,0.00,meteohub,2013-04-26 08:27:00,
2013-04-26 03:32:00,57.0,40.1,30.16,SE,135,4.0,4.0,53,-99.99,,,0.00,meteohub,2013-04-26 08:32:00,
2013-04-26 03:37:00,57.0,40.1,30.16,SE,135,1.0,4.0,53,-99.99,,,0.00,meteohub,2013-04-26 08:37:00,
2013-04-26 03:42:00,57.0,40.1,30.14,ESE,113,2.0,6.0,53,-99.99,,,0.00,meteohub,2013-04-26 08:42:00,
2013-04-26 03:47:00,56.7,39.7,30.14,WNW,293,2.0,6.0,53,-99.99,,,0.00,meteohub,2013-04-26 08:47:00,
2013-04-26 03:52:00,56.7,39.7,30.14,SE,135,0.0,6.0,53,-99.99,,,0.00,meteohub,2013-04-26 08:52:00,
2013-04-26 03:57:00,56.7,39.7,30.14,SSE,158,0.0,3.0,53,-99.99,,,0.00,meteohub,2013-04-26 08:57:00,
2013-04-26 04:02:00,56.7,39.7,30.12,SE,135,2.0,3.0,53,-99.99,,,0.00,meteohub,2013-04-26 09:02:00,
2013-04-26 04:07:00,56.7,39.7,30.12,NW,315,2.0,2.0,53,-99.99,,,0.00,meteohub,2013-04-26 09:07:00,
2013-04-26 04:12:00,56.5,39.6,30.12,SE,135,0.0,2.0,53,-99.99,,,0.00,meteohub,2013-04-26 09:12:00,
2013-04-26 04:17:00,56.3,39.4,30.12,SE,135,2.0,4.0,53,-99.99,,,0.00,meteohub,2013-04-26 09:17:00,
2013-04-26 04:22:00,56.3,39.4,30.13,South,180,6.0,6.0,53,-99.99,,,0.00,meteohub,2013-04-26 09:22:00,
2013-04-26 04:27:00,56.3,39.9,30.13,SE,135,5.0,6.0,54,-99.99,,,0.00,meteohub,2013-04-26 09:27:00,
2013-04-26 04:32:00,56.1,39.7,30.13,South,180,9.0,9.0,54,-99.99,,,0.00,meteohub,2013-04-26 09:32:00,
2013-04-26 04:37:00,56.3,39.9,30.13,ESE,113,3.0,9.0,54,-99.99,,,0.00,meteohub,2013-04-26 09:37:00,
2013-04-26 04:42:00,56.1,39.7,30.17,SSE,158,5.0,9.0,54,-99.99,,,0.00,meteohub,2013-04-26 09:42:00,
2013-04-26 04:47:00,56.3,39.9,30.17,South,180,3.0,9.0,54,-99.99,,,0.00,meteohub,2013-04-26 09:47:00,
2013-04-26 04:52:00,56.1,39.7,30.17,SW,225,4.0,6.0,54,-99.99,,,0.00,meteohub,2013-04-26 09:52:00,
2013-04-26 04:57:00,55.9,39.6,30.17,South,180,3.0,6.0,54,-99.99,,,0.00,meteohub,2013-04-26 09:57:00,
2013-04-26 05:02:00,55.8,39.9,30.19,South,180,4.0,6.0,55,-99.99,,,0.00,meteohub,2013-04-26 10:02:00,
2013-04-26 05:07:00,55.8,40.3,30.19,WSW,248,3.0,7.0,56,-99.99,,,0.00,meteohub,2013-04-26 10:07:00,
2013-04-26 05:12:00,55.6,40.1,30.19,SSW,203,9.0,9.0,56,-99.99,,,0.00,meteohub,2013-04-26 10:12:00,
2013-04-26 05:17:00,55.2,40.3,30.19,SSW,203,4.0,9.0,57,-99.99,,,0.00,meteohub,2013-04-26 10:17:00,
2013-04-26 05:22:00,54.9,40.3,30.19,SW,225,4.0,9.0,58,-99.99,,,0.00,meteohub,2013-04-26 10:22:00,
2013-04-26 05:27:00,54.5,40.5,30.19,East,90,5.0,9.0,59,-99.99,,,0.00,meteohub,2013-04-26 10:27:00,
2013-04-26 05:32:00,54.5,40.8,30.19,ENE,68,4.0,10.0,60,-99.99,,,0.00,meteohub,2013-04-26 10:32:00,
2013-04-26 05:37:00,53.6,40.5,30.19,SSW,203,4.0,10.0,61,-99.99,,,0.00,meteohub,2013-04-26 10:37:00,
2013-04-26 05:42:00,53.1,41.2,30.21,South,180,7.0,7.0,64,-99.99,,,0.00,meteohub,2013-04-26 10:42:00,
2013-04-26 05:47:00,52.2,41.2,30.21,WSW,248,8.0,8.0,66,-99.99,,,0.00,meteohub,2013-04-26 10:47:00,
2013-04-26 05:52:00,51.8,41.2,30.21,SSE,158,10.0,10.0,67,-99.99,,,0.00,meteohub,2013-04-26 10:52:00,
2013-04-26 05:57:00,51.3,41.0,30.21,South,180,3.0,10.0,68,-99.99,,,0.00,meteohub,2013-04-26 10:57:00,
2013-04-26 06:02:00,50.9,41.5,30.27,South,180,6.0,10.0,70,-99.99,,,0.00,meteohub,2013-04-26 11:02:00,
2013-04-26 06:07:00,50.5,41.9,30.27,South,180,6.0,10.0,72,-99.99,,,0.00,meteohub,2013-04-26 11:07:00,
2013-04-26 06:12:00,50.0,41.7,30.27,SSW,203,7.0,8.0,73,-99.99,,,0.00,meteohub,2013-04-26 11:12:00,
2013-04-26 06:17:00,50.0,41.7,30.27,ESE,113,7.0,8.0,73,-99.99,,,0.00,meteohub,2013-04-26 11:17:00,
2013-04-26 06:22:00,49.3,41.4,30.25,East,90,2.0,8.0,74,-99.99,,,0.00,meteohub,2013-04-26 11:22:00,
2013-04-26 06:27:00,49.1,41.2,30.25,SSE,158,2.0,7.0,74,0.00,,,0.00,meteohub,2013-04-26 11:27:00,
2013-04-26 06:32:00,48.7,41.5,30.25,SSE,158,2.0,7.0,76,0.00,,,0.00,meteohub,2013-04-26 11:32:00,
2013-04-26 06:37:00,48.6,41.4,30.25,ESE,113,0.0,6.0,76,0.00,,,0.00,meteohub,2013-04-26 11:37:00,
2013-04-26 06:42:00,48.4,41.2,30.25,SSE,158,0.0,6.0,76,0.03,,,0.03,meteohub,2013-04-26 11:42:00,
2013-04-26 06:47:00,48.0,40.8,30.25,ENE,68,2.0,2.0,76,0.03,,,0.03,meteohub,2013-04-26 11:47:00,
2013-04-26 06:52:00,48.0,41.2,30.25,SSE,158,3.0,3.0,77,0.03,,,0.03,meteohub,2013-04-26 11:52:00,
2013-04-26 06:57:00,47.8,41.4,30.25,SE,135,2.0,3.0,78,0.03,,,0.03,meteohub,2013-04-26 11:57:00,
2013-04-26 07:02:00,47.8,41.7,30.25,ESE,113,6.0,6.0,79,0.06,,,0.06,meteohub,2013-04-26 12:02:00,
2013-04-26 07:07:00,47.7,41.7,30.25,SSE,158,2.0,6.0,80,0.06,,,0.06,meteohub,2013-04-26 12:07:00,
2013-04-26 07:12:00,47.7,42.1,30.25,South,180,2.0,6.0,81,0.06,,,0.06,meteohub,2013-04-26 12:12:00,
2013-04-26 07:17:00,47.5,41.5,30.26,East,90,2.0,6.0,80,0.08,,,0.06,meteohub,2013-04-26 12:17:00,
2013-04-26 07:22:00,47.7,42.1,30.27,SE,135,4.0,4.0,81,0.08,,,0.08,meteohub,2013-04-26 12:22:00,
2013-04-26 07:27:00,47.7,42.1,30.27,East,90,4.0,4.0,81,0.08,,,0.08,meteohub,2013-04-26 12:27:00,
2013-04-26 07:32:00,47.7,42.4,30.27,ESE,113,5.0,5.0,82,0.08,,,0.08,meteohub,2013-04-26 12:32:00,
2013-04-26 07:37:00,47.7,42.8,30.27,East,90,1.0,5.0,83,0.06,,,0.08,meteohub,2013-04-26 12:37:00,
2013-04-26 07:42:00,47.7,42.8,30.28,ENE,68,0.0,5.0,83,0.06,,,0.08,meteohub,2013-04-26 12:42:00,
2013-04-26 07:47:00,47.7,42.4,30.28,SE,135,0.0,5.0,82,0.08,,,0.11,meteohub,2013-04-26 12:47:00,
2013-04-26 07:52:00,47.7,42.4,30.28,ESE,113,0.0,4.0,82,0.08,,,0.11,meteohub,2013-04-26 12:52:00,
2013-04-26 07:57:00,47.7,42.4,30.28,SE,135,0.0,1.0,82,0.06,,,0.11,meteohub,2013-04-26 12:57:00,
2013-04-26 08:02:00,47.7,42.4,30.30,East,90,0.0,1.0,82,0.08,,,0.14,meteohub,2013-04-26 13:02:00,
2013-04-26 08:07:00,47.7,42.4,30.30,WNW,293,0.0,2.0,82,0.08,,,0.14,meteohub,2013-04-26 13:07:00,
2013-04-26 08:12:00,47.7,42.8,30.30,ESE,113,0.0,2.0,83,0.08,,,0.14,meteohub,2013-04-26 13:12:00,
2013-04-26 08:17:00,47.7,42.8,30.30,ENE,68,2.0,2.0,83,0.06,,,0.14,meteohub,2013-04-26 13:17:00,
2013-04-26 08:22:00,47.7,42.8,30.30,NNW,338,0.0,2.0,83,0.06,,,0.14,meteohub,2013-04-26 13:22:00,
2013-04-26 08:27:00,47.7,42.8,30.30,NE,45,0.0,2.0,83,0.06,,,0.14,meteohub,2013-04-26 13:27:00,
2013-04-26 08:32:00,47.7,42.8,30.30,NE,45,0.0,2.0,83,0.06,,,0.14,meteohub,2013-04-26 13:32:00,
2013-04-26 08:36:00,47.7,43.0,30.30,SW,225,0.0,0.0,84,0.06,,,0.14,meteohub,2013-04-26 13:36:00,
2013-04-26 08:41:00,47.7,43.0,30.29,WSW,248,0.0,0.0,84,0.03,,,0.14,meteohub,2013-04-26 13:41:00,
2013-04-26 08:47:00,47.7,43.0,30.29,ESE,113,0.0,0.0,84,0.03,,,0.14,meteohub,2013-04-26 13:47:00,
2013-04-26 08:52:00,47.7,43.0,30.29,ESE,113,2.0,0.0,84,0.05,,,0.16,meteohub,2013-04-26 13:52:00,
2013-04-26 08:56:00,47.7,43.0,30.29,ESE,113,0.0,2.0,84,0.02,,,0.16,meteohub,2013-04-26 13:56:00,
2013-04-26 09:02:00,47.7,43.0,30.31,North,0,0.0,2.0,84,0.02,,,0.16,meteohub,2013-04-26 14:02:00,
2013-04-26 09:07:00,47.5,43.2,30.31,ENE,68,3.0,3.0,85,0.02,,,0.16,meteohub,2013-04-26 14:07:00,
2013-04-26 09:12:00,47.7,43.3,30.31,ESE,113,3.0,4.0,85,0.05,,,0.19,meteohub,2013-04-26 14:12:00,
2013-04-26 09:17:00,47.3,43.3,30.31,East,90,4.0,4.0,86,0.05,,,0.19,meteohub,2013-04-26 14:17:00,
2013-04-26 09:22:00,47.3,43.0,30.27,ESE,113,2.0,5.0,85,0.05,,,0.19,meteohub,2013-04-26 14:22:00,
2013-04-26 09:27:00,47.3,43.0,30.27,ESE,113,3.0,5.0,85,0.05,,,0.19,meteohub,2013-04-26 14:27:00,
2013-04-26 09:32:00,47.3,43.0,30.27,East,90,1.0,5.0,85,0.08,,,0.22,meteohub,2013-04-26 14:32:00,
2013-04-26 09:37:00,47.1,42.8,30.27,SSE,158,4.0,6.0,85,0.08,,,0.22,meteohub,2013-04-26 14:37:00,
2013-04-26 09:42:00,47.3,43.3,30.25,ESE,113,4.0,6.0,86,0.08,,,0.22,meteohub,2013-04-26 14:42:00,
2013-04-26 09:47:00,47.3,43.3,30.25,SE,135,6.0,6.0,86,0.06,,,0.22,meteohub,2013-04-26 14:47:00,
2013-04-26 09:52:00,47.5,43.5,30.25,NNE,23,6.0,6.0,86,0.06,,,0.22,meteohub,2013-04-26 14:52:00,
2013-04-26 09:57:00,47.7,43.7,30.25,SE,135,5.0,6.0,86,0.06,,,0.22,meteohub,2013-04-26 14:57:00,
2013-04-26 10:02:00,47.7,43.7,30.23,East,90,9.0,9.0,86,0.06,,,0.22,meteohub,2013-04-26 15:02:00,
2013-04-26 10:07:00,47.7,43.7,30.23,SE,135,4.0,9.0,86,0.03,,,0.22,meteohub,2013-04-26 15:07:00,
2013-04-26 10:12:00,47.7,43.7,30.23,ESE,113,4.0,9.0,86,0.03,,,0.22,meteohub,2013-04-26 15:12:00,
2013-04-26 10:17:00,48.0,43.7,30.23,South,180,2.0,9.0,85,0.03,,,0.22,meteohub,2013-04-26 15:17:00,
2013-04-26 10:22:00,47.8,43.5,30.26,ESE,113,5.0,6.0,85,0.03,,,0.22,meteohub,2013-04-26 15:22:00,
2013-04-26 10:27:00,48.0,43.7,30.26,SSE,158,2.0,5.0,85,0.06,,,0.24,meteohub,2013-04-26 15:27:00,
2013-04-26 10:32:00,48.0,43.7,30.26,South,180,3.0,5.0,85,0.03,,,0.24,meteohub,2013-04-26 15:32:00,
2013-04-26 10:37:00,47.8,43.5,30.26,SE,135,2.0,5.0,85,0.03,,,0.24,meteohub,2013-04-26 15:37:00,
2013-04-26 10:42:00,47.7,43.3,30.27,ESE,113,0.0,4.0,85,0.03,,,0.24,meteohub,2013-04-26 15:42:00,
2013-04-26 10:47:00,47.7,43.3,30.27,South,180,0.0,3.0,85,0.03,,,0.24,meteohub,2013-04-26 15:47:00,
2013-04-26 10:52:00,47.7,43.3,30.27,SSE,158,0.0,3.0,85,0.06,,,0.27,meteohub,2013-04-26 15:52:00,
2013-04-26 10:57:00,47.7,43.3,30.27,ENE,68,0.0,3.0,85,0.06,,,0.27,meteohub,2013-04-26 15:57:00,
2013-04-26 11:02:00,47.5,43.2,30.30,SE,135,3.0,3.0,85,0.08,,,0.30,meteohub,2013-04-26 16:02:00,
2013-04-26 11:07:00,47.7,43.3,30.30,ESE,113,2.0,3.0,85,0.08,,,0.30,meteohub,2013-04-26 16:07:00,
2013-04-26 11:12:00,47.5,43.2,30.30,SSE,158,0.0,3.0,85,0.08,,,0.30,meteohub,2013-04-26 16:12:00,
2013-04-26 11:17:00,47.5,43.2,30.30,ESE,113,2.0,3.0,85,0.11,,,0.33,meteohub,2013-04-26 16:17:00,
2013-04-26 11:22:00,47.7,43.3,30.28,SE,135,3.0,3.0,85,0.08,,,0.33,meteohub,2013-04-26 16:22:00,
2013-04-26 11:27:00,47.3,43.0,30.28,ESE,113,2.0,4.0,85,0.11,,,0.35,meteohub,2013-04-26 16:27:00,
2013-04-26 11:32:00,47.3,43.3,30.28,South,180,2.0,4.0,86,0.14,,,0.35,meteohub,2013-04-26 16:32:00,
2013-04-26 11:37:00,47.3,43.3,30.28,WSW,248,3.0,4.0,86,0.14,,,0.38,meteohub,2013-04-26 16:37:00,
2013-04-26 11:42:00,47.3,43.3,30.32,WSW,248,2.0,3.0,86,0.17,,,0.41,meteohub,2013-04-26 16:42:00,
2013-04-26 11:47:00,47.3,43.3,30.32,SE,135,2.0,3.0,86,0.14,,,0.41,meteohub,2013-04-26 16:47:00,
2013-04-26 11:52:00,47.1,43.2,30.32,SE,135,0.0,3.0,86,0.14,,,0.41,meteohub,2013-04-26 16:52:00,
2013-04-26 11:57:00,47.3,43.3,30.32,SSE,158,2.0,3.0,86,0.16,,,0.43,meteohub,2013-04-26 16:57:00,
2013-04-26 12:02:00,47.1,43.5,30.27,South,180,4.0,4.0,87,0.13,,,0.43,meteohub,2013-04-26 17:02:00,
2013-04-26 12:07:00,47.1,43.2,30.27,South,180,0.0,3.0,86,0.16,,,0.46,meteohub,2013-04-26 17:07:00,
2013-04-26 12:12:00,47.3,43.7,30.27,SE,135,3.0,4.0,87,0.16,,,0.49,meteohub,2013-04-26 17:12:00,
2013-04-26 12:17:00,47.3,43.7,30.27,SE,135,2.0,4.0,87,0.16,,,0.49,meteohub,2013-04-26 17:17:00,
2013-04-26 12:22:00,47.7,44.1,30.25,SE,135,3.0,6.0,87,0.13,,,0.49,meteohub,2013-04-26 17:22:00,
2013-04-26 12:27:00,47.7,44.1,30.25,South,180,7.0,7.0,87,0.13,,,0.49,meteohub,2013-04-26 17:27:00,
2013-04-26 12:32:00,47.7,44.1,30.25,SE,135,5.0,7.0,87,0.11,,,0.49,meteohub,2013-04-26 17:32:00,
2013-04-26 12:37:00,47.7,44.1,30.25,SSW,203,5.0,7.0,87,0.11,,,0.49,meteohub,2013-04-26 17:37:00,
2013-04-26 12:42:00,47.8,44.2,30.24,SSE,158,4.0,7.0,87,0.08,,,0.49,meteohub,2013-04-26 17:42:00,
2013-04-26 12:47:00,47.8,44.2,30.24,SE,135,2.0,6.0,87,0.11,,,0.52,meteohub,2013-04-26 17:47:00,
2013-04-26 12:52:00,47.8,44.2,30.24,East,90,5.0,5.0,87,0.11,,,0.52,meteohub,2013-04-26 17:52:00,
2013-04-26 12:57:00,47.8,44.2,30.24,NE,45,2.0,5.0,87,0.08,,,0.52,meteohub,2013-04-26 17:57:00,
2013-04-26 13:02:00,47.8,44.2,30.23,ESE,113,4.0,6.0,87,0.06,,,0.52,meteohub,2013-04-26 18:02:00,
2013-04-26 13:07:00,47.8,44.2,30.23,SE,135,2.0,11.0,87,0.06,,,0.52,meteohub,2013-04-26 18:07:00,
2013-04-26 13:12:00,48.0,44.4,30.23,ESE,113,6.0,11.0,87,0.03,,,0.52,meteohub,2013-04-26 18:12:00,
2013-04-26 13:17:00,48.0,44.4,30.23,SE,135,9.0,11.0,87,0.03,,,0.52,meteohub,2013-04-26 18:17:00,
2013-04-26 13:22:00,48.0,44.4,30.20,ESE,113,3.0,10.0,87,0.03,,,0.52,meteohub,2013-04-26 18:22:00,
2013-04-26 13:26:00,48.0,44.4,30.20,SSE,158,6.0,9.0,87,0.03,,,0.52,meteohub,2013-04-26 18:26:00,
2013-04-26 13:32:00,48.0,44.4,30.20,SSE,158,3.0,9.0,87,0.03,,,0.52,meteohub,2013-04-26 18:32:00,
2013-04-26 13:37:00,48.4,44.8,30.20,ENE,68,3.0,6.0,87,0.06,,,0.54,meteohub,2013-04-26 18:37:00,
2013-04-26 13:42:00,48.4,44.8,30.19,SE,135,2.0,6.0,87,0.03,,,0.54,meteohub,2013-04-26 18:42:00,
2013-04-26 13:47:00,48.6,44.8,30.19,ESE,113,2.0,6.0,87,0.03,,,0.54,meteohub,2013-04-26 18:47:00,
2013-04-26 13:52:00,49.1,45.7,30.19,ENE,68,1.0,8.0,88,0.03,,,0.54,meteohub,2013-04-26 18:52:00,
2013-04-26 13:57:00,49.3,45.9,30.19,ENE,68,6.0,8.0,88,0.03,,,0.54,meteohub,2013-04-26 18:57:00,
2013-04-26 14:02:00,49.3,45.9,30.19,SE,135,4.0,6.0,88,0.03,,,0.54,meteohub,2013-04-26 19:02:00,
2013-04-26 14:07:00,49.3,45.5,30.19,ESE,113,1.0,6.0,87,0.03,,,0.54,meteohub,2013-04-26 19:07:00,
2013-04-26 14:12:00,49.3,45.5,30.19,SE,135,9.0,9.0,87,0.03,,,0.54,meteohub,2013-04-26 19:12:00,
2013-04-26 14:17:00,49.3,45.3,30.19,SSE,158,4.0,9.0,86,0.03,,,0.54,meteohub,2013-04-26 19:17:00,
2013-04-26 14:22:00,49.1,45.1,30.17,ESE,113,8.0,9.0,86,0.03,,,0.54,meteohub,2013-04-26 19:22:00,
2013-04-26 14:27:00,49.1,45.1,30.17,NNE,23,5.0,9.0,86,0.03,,,0.54,meteohub,2013-04-26 19:27:00,
2013-04-26 14:32:00,48.7,44.8,30.17,SE,135,3.0,8.0,86,0.00,,,0.54,meteohub,2013-04-26 19:32:00,
2013-04-26 14:37:00,48.6,44.6,30.17,WSW,248,4.0,8.0,86,0.00,,,0.54,meteohub,2013-04-26 19:37:00,
2013-04-26 14:42:00,48.6,44.8,30.16,South,180,4.0,5.0,87,0.03,,,0.57,meteohub,2013-04-26 19:42:00,
2013-04-26 14:47:00,48.6,44.8,30.16,ESE,113,3.0,5.0,87,0.03,,,0.57,meteohub,2013-04-26 19:47:00,
2013-04-26 14:52:00,48.7,45.0,30.16,South,180,7.0,8.0,87,0.03,,,0.57,meteohub,2013-04-26 19:52:00,
2013-04-26 14:57:00,48.9,45.5,30.16,SSE,158,2.0,8.0,88,0.03,,,0.57,meteohub,2013-04-26 19:57:00,
2013-04-26 15:02:00,49.1,45.7,30.15,SE,135,4.0,8.0,88,0.03,,,0.57,meteohub,2013-04-26 20:02:00,
2013-04-26 15:07:00,48.7,45.0,30.15,SSE,158,1.0,7.0,87,0.03,,,0.57,meteohub,2013-04-26 20:07:00,
2013-04-26 15:12:00,48.9,45.1,30.15,NNE,23,2.0,5.0,87,0.03,,,0.57,meteohub,2013-04-26 20:12:00,
2013-04-26 15:17:00,48.9,45.1,30.15,ESE,113,4.0,5.0,87,0.06,,,0.60,meteohub,2013-04-26 20:17:00,
2013-04-26 15:22:00,48.7,45.0,30.13,SSE,158,2.0,5.0,87,0.06,,,0.60,meteohub,2013-04-26 20:22:00,
2013-04-26 15:27:00,49.1,45.7,30.13,ESE,113,4.0,7.0,88,0.06,,,0.60,meteohub,2013-04-26 20:27:00,
2013-04-26 15:32:00,49.1,45.7,30.13,SE,135,2.0,7.0,88,0.06,,,0.60,meteohub,2013-04-26 20:32:00,
2013-04-26 15:37:00,49.1,45.7,30.13,SE,135,4.0,7.0,88,0.03,,,0.60,meteohub,2013-04-26 20:37:00,
2013-04-26 15:42:00,49.1,45.7,30.17,NE,45,6.0,6.0,88,0.03,,,0.60,meteohub,2013-04-26 20:42:00,
2013-04-26 15:47:00,49.1,45.7,30.17,SW,225,3.0,6.0,88,0.03,,,0.60,meteohub,2013-04-26 20:47:00,
2013-04-26 15:52:00,49.1,45.7,30.17,SE,135,3.0,6.0,88,0.06,,,0.63,meteohub,2013-04-26 20:52:00,
2013-04-26 15:57:00,49.1,45.7,30.17,ESE,113,6.0,6.0,88,0.06,,,0.63,meteohub,2013-04-26 20:57:00,
2013-04-26 16:02:00,48.9,45.5,30.14,SE,135,4.0,4.0,88,0.06,,,0.63,meteohub,2013-04-26 21:02:00,
2013-04-26 16:07:00,48.9,45.5,30.14,SE,135,4.0,9.0,88,0.06,,,0.63,meteohub,2013-04-26 21:07:00,
2013-04-26 16:12:00,48.7,45.0,30.14,SSE,158,5.0,9.0,87,0.06,,,0.63,meteohub,2013-04-26 21:12:00,
2013-04-26 16:17:00,48.7,45.0,30.14,ESE,113,2.0,5.0,87,0.06,,,0.65,meteohub,2013-04-26 21:17:00,
2013-04-26 16:22:00,48.9,45.5,30.14,SE,135,4.0,6.0,88,0.06,,,0.65,meteohub,2013-04-26 21:22:00,
2013-04-26 16:27:00,48.9,45.5,30.14,ESE,113,2.0,11.0,88,0.06,,,0.65,meteohub,2013-04-26 21:27:00,
2013-04-26 16:32:00,48.7,45.0,30.15,SE,135,5.0,11.0,87,0.06,,,0.65,meteohub,2013-04-26 21:32:00,
2013-04-26 16:37:00,48.9,45.5,30.14,SSE,158,2.0,11.0,88,0.06,,,0.65,meteohub,2013-04-26 21:37:00,
2013-04-26 16:42:00,48.9,45.5,30.16,SW,225,2.0,5.0,88,0.06,,,0.65,meteohub,2013-04-26 21:42:00,
2013-04-26 16:47:00,49.1,45.7,30.16,SE,135,5.0,5.0,88,0.06,,,0.65,meteohub,2013-04-26 21:47:00,
2013-04-26 16:52:00,48.9,45.5,30.16,SE,135,0.0,5.0,88,0.03,,,0.65,meteohub,2013-04-26 21:52:00,
2013-04-26 16:57:00,48.9,45.5,30.16,SE,135,9.0,9.0,88,0.03,,,0.65,meteohub,2013-04-26 21:57:00,
2013-04-26 17:02:00,48.7,45.0,30.16,South,180,5.0,9.0,87,0.06,,,0.68,meteohub,2013-04-26 22:02:00,
2013-04-26 17:07:00,48.6,44.8,30.16,SE,135,0.0,9.0,87,0.06,,,0.68,meteohub,2013-04-26 22:07:00,
2013-04-26 17:12:00,48.7,45.3,30.16,ESE,113,3.0,9.0,88,0.06,,,0.68,meteohub,2013-04-26 22:12:00,
2013-04-26 17:17:00,48.6,45.1,30.16,ESE,113,5.0,5.0,88,0.03,,,0.68,meteohub,2013-04-26 22:17:00,
2013-04-26 17:22:00,48.6,45.1,30.14,ESE,113,0.0,5.0,88,0.05,,,0.70,meteohub,2013-04-26 22:22:00,
2013-04-26 17:27:00,48.6,45.1,30.14,SE,135,7.0,7.0,88,0.05,,,0.70,meteohub,2013-04-26 22:27:00,
2013-04-26 17:32:00,48.6,45.1,30.14,East,90,0.0,5.0,88,0.05,,,0.70,meteohub,2013-04-26 22:32:00,
2013-04-26 17:37:00,48.6,45.1,30.14,SE,135,4.0,7.0,88,0.05,,,0.70,meteohub,2013-04-26 22:37:00,
2013-04-26 17:42:00,48.6,45.1,30.15,ENE,68,3.0,7.0,88,0.05,,,0.70,meteohub,2013-04-26 22:42:00,
2013-04-26 17:47:00,48.4,45.0,30.15,WSW,248,3.0,4.0,88,0.05,,,0.70,meteohub,2013-04-26 22:47:00,
2013-04-26 17:52:00,48.4,45.0,30.15,East,90,0.0,4.0,88,0.05,,,0.70,meteohub,2013-04-26 22:52:00,
2013-04-26 17:57:00,48.4,45.0,30.15,ESE,113,4.0,4.0,88,0.08,,,0.73,meteohub,2013-04-26 22:57:00,
2013-04-26 18:02:00,48.4,45.3,30.17,SE,135,3.0,4.0,89,0.05,,,0.73,meteohub,2013-04-26 23:02:00,
2013-04-26 18:07:00,48.4,45.3,30.17,SE,135,2.0,5.0,89,0.08,,,0.76,meteohub,2013-04-26 23:07:00,
2013-04-26 18:12:00,48.0,45.0,30.17,ESE,113,3.0,6.0,89,0.08,,,0.76,meteohub,2013-04-26 23:12:00,
2013-04-26 18:17:00,48.0,45.0,30.17,ESE,113,3.0,6.0,89,0.08,,,0.79,meteohub,2013-04-26 23:17:00,
2013-04-26 18:22:00,48.0,45.0,30.14,ESE,113,7.0,7.0,89,0.08,,,0.79,meteohub,2013-04-26 23:22:00,
2013-04-26 18:27:00,48.0,45.0,30.14,SE,135,4.0,7.0,89,0.11,,,0.81,meteohub,2013-04-26 23:27:00,
2013-04-26 18:32:00,47.8,44.8,30.14,ENE,68,2.0,7.0,89,0.11,,,0.81,meteohub,2013-04-26 23:32:00,
2013-04-26 18:37:00,47.8,45.0,30.14,East,90,2.0,9.0,90,0.11,,,0.81,meteohub,2013-04-26 23:37:00,
2013-04-26 18:42:00,47.8,45.0,30.14,SE,135,3.0,9.0,90,0.11,,,0.81,meteohub,2013-04-26 23:42:00,
2013-04-26 18:47:00,48.0,45.1,30.14,NW,315,2.0,9.0,90,0.11,,,0.81,meteohub,2013-04-26 23:47:00,
2013-04-26 18:52:00,48.0,45.1,30.14,SE,135,2.0,8.0,90,0.11,,,0.84,meteohub,2013-04-26 23:52:00,
2013-04-26 19:05:00,47.8,45.0,30.14,ESE,113,2.0,8.0,90,0.08,,,0.84,meteohub,2013-04-27 00:05:00,
2013-04-26 19:10:00,47.8,45.0,30.14,ESE,113,4.0,6.0,90,0.06,,,0.84,meteohub,2013-04-27 00:10:00,
2013-04-26 19:15:00,47.8,45.0,30.14,SE,135,5.0,6.0,90,0.06,,,0.84,meteohub,2013-04-27 00:15:00,
2013-04-26 19:20:00,47.8,45.0,30.14,East,90,2.0,5.0,90,0.03,,,0.84,meteohub,2013-04-27 00:20:00,
2013-04-26 19:25:00,47.8,45.0,30.14,SE,135,4.0,8.0,90,0.06,,,0.87,meteohub,2013-04-27 00:25:00,
2013-04-26 19:30:00,47.8,45.0,30.14,ESE,113,6.0,8.0,90,0.06,,,0.87,meteohub,2013-04-27 00:30:00,
2013-04-26 19:35:00,48.0,45.1,30.14,ESE,113,7.0,8.0,90,0.06,,,0.87,meteohub,2013-04-27 00:35:00,
2013-04-26 19:40:00,48.0,45.1,30.14,NNE,23,4.0,7.0,90,0.06,,,0.87,meteohub,2013-04-27 00:40:00,
2013-04-26 19:45:00,47.8,45.0,30.14,SSE,158,14.0,14.0,90,0.06,,,0.90,meteohub,2013-04-27 00:45:00,
2013-04-26 19:51:00,47.8,45.0,30.14,ENE,68,9.0,14.0,90,0.06,,,0.90,meteohub,2013-04-27 00:51:00,
2013-04-26 19:56:00,47.8,45.0,30.14,ESE,113,4.0,14.0,90,0.08,,,0.93,meteohub,2013-04-27 00:56:00,
2013-04-26 20:01:00,47.7,44.6,30.15,SSE,158,5.0,14.0,89,0.08,,,0.93,meteohub,2013-04-27 01:01:00,
2013-04-26 20:06:00,47.3,44.2,30.15,ESE,113,6.0,11.0,89,0.11,,,0.95,meteohub,2013-04-27 01:06:00,
2013-04-26 20:11:00,47.1,44.1,30.15,WNW,293,4.0,7.0,89,0.11,,,0.95,meteohub,2013-04-27 01:11:00,
2013-04-26 20:16:00,47.1,44.4,30.15,ENE,68,4.0,6.0,90,0.11,,,0.95,meteohub,2013-04-27 01:16:00,
2013-04-26 20:21:00,46.9,44.2,30.14,SE,135,4.0,7.0,90,0.13,,,1.00,meteohub,2013-04-27 01:21:00,
2013-04-26 20:26:00,46.8,44.1,30.15,SSE,158,6.0,7.0,90,0.16,,,1.03,meteohub,2013-04-27 01:26:00,
2013-04-26 20:31:00,46.9,44.2,30.14,SE,135,6.0,7.0,90,0.19,,,1.06,meteohub,2013-04-27 01:31:00,
2013-04-26 20:36:00,46.6,43.9,30.15,SE,135,4.0,6.0,90,0.19,,,1.06,meteohub,2013-04-27 01:36:00,
2013-04-26 20:41:00,46.6,43.9,30.14,SE,135,4.0,6.0,90,0.24,,,1.14,meteohub,2013-04-27 01:41:00,
2013-04-26 20:46:00,46.4,43.7,30.14,ENE,68,7.0,8.0,90,0.24,,,1.14,meteohub,2013-04-27 01:46:00,
2013-04-26 20:51:00,46.4,43.9,30.14,East,90,7.0,8.0,91,0.24,,,1.14,meteohub,2013-04-27 01:51:00,
2013-04-26 20:56:00,46.4,43.9,30.14,WSW,248,5.0,8.0,91,0.24,,,1.17,meteohub,2013-04-27 01:56:00,
2013-04-26 21:01:00,46.6,44.1,30.13,East,90,9.0,9.0,91,0.22,,,1.17,meteohub,2013-04-27 02:01:00,
2013-04-26 21:06:00,46.6,44.1,30.13,ESE,113,3.0,9.0,91,0.22,,,1.17,meteohub,2013-04-27 02:06:00,
2013-04-26 21:11:00,46.9,44.4,30.13,SSE,158,2.0,9.0,91,0.22,,,1.17,meteohub,2013-04-27 02:11:00,
2013-04-26 21:16:00,46.9,44.4,30.13,East,90,4.0,9.0,91,0.17,,,1.17,meteohub,2013-04-27 02:16:00,
2013-04-26 21:21:00,46.8,44.2,30.14,SE,135,4.0,9.0,91,0.14,,,1.17,meteohub,2013-04-27 02:21:00,
2013-04-26 21:26:00,46.9,44.4,30.14,SE,135,2.0,8.0,91,0.11,,,1.17,meteohub,2013-04-27 02:26:00,
2013-04-26 21:31:00,46.9,44.4,30.14,ESE,113,3.0,8.0,91,0.11,,,1.20,meteohub,2013-04-27 02:31:00,
2013-04-26 21:36:00,46.9,44.4,30.14,ESE,113,3.0,5.0,91,0.08,,,1.20,meteohub,2013-04-27 02:36:00,
2013-04-26 21:41:00,46.9,44.4,30.16,ESE,113,5.0,5.0,91,0.06,,,1.20,meteohub,2013-04-27 02:41:00,
2013-04-26 21:46:00,47.1,44.4,30.16,SSW,203,0.0,5.0,90,0.06,,,1.20,meteohub,2013-04-27 02:46:00,
2013-04-26 21:51:00,47.1,44.4,30.16,SSW,203,0.0,5.0,90,0.03,,,1.20,meteohub,2013-04-27 02:51:00,
2013-04-26 21:56:00,46.9,44.2,30.16,ESE,113,4.0,5.0,90,0.03,,,1.20,meteohub,2013-04-27 02:56:00,
2013-04-26 22:01:00,46.9,44.2,30.16,SE,135,2.0,4.0,90,0.06,,,1.22,meteohub,2013-04-27 03:01:00,
2013-04-26 22:06:00,46.9,44.2,30.16,ESE,113,3.0,4.0,90,0.06,,,1.22,meteohub,2013-04-27 03:06:00,
2013-04-26 22:11:00,46.9,44.2,30.16,ESE,113,2.0,4.0,90,0.06,,,1.22,meteohub,2013-04-27 03:11:00,
2013-04-26 22:16:00,46.9,44.2,30.16,SSE,158,4.0,4.0,90,0.06,,,1.22,meteohub,2013-04-27 03:16:00,
2013-04-26 22:21:00,46.9,44.2,30.17,ENE,68,0.0,4.0,90,0.06,,,1.22,meteohub,2013-04-27 03:21:00,
2013-04-26 22:26:00,46.8,44.1,30.17,ENE,68,2.0,4.0,90,0.03,,,1.22,meteohub,2013-04-27 03:26:00,
2013-04-26 22:31:00,46.8,44.1,30.17,SE,135,3.0,4.0,90,0.03,,,1.22,meteohub,2013-04-27 03:31:00,
2013-04-26 22:36:00,46.9,44.2,30.17,ESE,113,0.0,3.0,90,0.03,,,1.22,meteohub,2013-04-27 03:36:00,
2013-04-26 22:41:00,46.9,44.2,30.17,SW,225,0.0,3.0,90,0.03,,,1.22,meteohub,2013-04-27 03:41:00,
2013-04-26 22:46:00,46.9,44.2,30.17,SSE,158,2.0,5.0,90,0.03,,,1.22,meteohub,2013-04-27 03:46:00,
2013-04-26 22:51:00,46.9,44.2,30.17,SE,135,0.0,5.0,90,0.03,,,1.22,meteohub,2013-04-27 03:51:00,
2013-04-26 22:56:00,46.9,44.2,30.17,ESE,113,2.0,5.0,90,0.03,,,1.22,meteohub,2013-04-27 03:56:00,
2013-04-26 23:01:00,46.9,44.2,30.16,ESE,113,3.0,3.0,90,0.00,,,1.22,meteohub,2013-04-27 04:01:00,
2013-04-26 23:06:00,46.9,44.2,30.16,ESE,113,2.0,3.0,90,0.02,,,1.25,meteohub,2013-04-27 04:06:00,
2013-04-26 23:11:00,47.1,44.4,30.16,SSE,158,2.0,4.0,90,0.02,,,1.25,meteohub,2013-04-27 04:11:00,
2013-04-26 23:16:00,47.1,44.4,30.16,SE,135,6.0,6.0,90,0.02,,,1.25,meteohub,2013-04-27 04:16:00,
2013-04-26 23:21:00,47.1,44.6,30.14,ESE,113,4.0,6.0,91,0.02,,,1.25,meteohub,2013-04-27 04:21:00,
2013-04-26 23:26:00,47.1,44.6,30.14,SE,135,0.0,6.0,91,0.02,,,1.25,meteohub,2013-04-27 04:26:00,
2013-04-26 23:31:00,47.1,44.4,30.14,ESE,113,5.0,6.0,90,0.02,,,1.25,meteohub,2013-04-27 04:31:00,
2013-04-26 23:36:00,47.3,44.8,30.14,ESE,113,3.0,5.0,91,0.02,,,1.25,meteohub,2013-04-27 04:36:00,
2013-04-26 23:41:00,47.3,44.8,30.14,SE,135,3.0,6.0,91,0.02,,,1.25,meteohub,2013-04-27 04:41:00,
2013-04-26 23:46:00,47.3,44.8,30.14,SSE,158,4.0,6.0,91,0.02,,,1.25,meteohub,2013-04-27 04:46:00,
2013-04-26 23:51:00,47.3,44.8,30.14,ESE,113,4.0,6.0,91,0.02,,,1.25,meteohub,2013-04-27 04:51:00,
2013-04-26 23:56:00,47.1,44.6,30.14,ESE,113,4.0,6.0,91,0.02,,,1.25,meteohub,2013-04-27 04:56:00,